Regional Weather Roundup
Issued by NWS

Home | Current Version | Previous Version | Graphics & Text | Print | Product List | Glossary On
Versions: 1 2 3 4 5 6 7 8 9 10 11 12 13 14 15 16 17 18 19 20 21 22 23 24 25 26 27 28 29 30 31 32 33 34 35 36 37 38 39 40 41 42 43 44 45 46 47 48 49 50
000
ASUS43 KIND 271109
RWRIN

WEATHER ROUNDUP FOR INDIANA
NATIONAL WEATHER SERVICE INDIANAPOLIS IN
700 AM EDT SAT MAY 27 2017

NOTE: "FAIR" INDICATES FEW OR NO CLOUDS BELOW 12,000 FEET WITH NO
SIGNIFICANT WEATHER AND/OR OBSTRUCTIONS TO VISIBILITY.

* - STATION DOES NOT REPORT WEATHER SUCH AS PRECIPITATION OR FOG.

+ - STATION NOT QUALITY CONTROLLED BY THE NATIONAL WEATHER SERVICE.
    USE DATA WITH CAUTION...ESPECIALLY DEWPOINT AND RELATIVE
    HUMIDITY OBSERVATIONS.

INZ001>003-010>013-019-020-271200-
NORTHWEST INDIANA

CITY           SKY/WX    TMP DP  RH WIND       PRES   REMARKS
GARY /AIRPORT/ CLOUDY    55  52  88 N7        29.89R
KNOX *+        CLOUDY    57  54  88 E3        29.86R
LA PORTE +     PTCLDY    58  56  94 NE3       29.88R
MICHIGAN CITY+ CLOUDY    55  55 100 CALM      29.87S FOG
MONTICELLO +   CLOUDY    60  59  96 N6        29.85R FOG
RENSSELAER +   CLOUDY    61  59  94 N5        29.86S FOG
VALPARAISO     MOCLDY    60  58  92 CALM      29.88R

$$

LMZ046-743>745-271200-
SOUTHERN LAKE MICHIGAN

STATION/POSITION TIME  TEMP    WIND        PRES    WAVE
                       AIR SEA DIR/SP/G            HT
                 (UTC) (F)     (DEG/KT/KT) (MB)    (FT)
BURNS HARBOR     1040   53      30/  7/  8 1012.2R
MICHIGAN CITY    1040   54      20/ 11/ 12   N/A
5NW MICH CITY    1100   53 53   20/  8/ 10   N/A     1

$$

INZ004-005-014>016-021>024-271200-
NORTH CENTRAL INDIANA

CITY           SKY/WX    TMP DP  RH WIND       PRES   REMARKS
GOSHEN         CLOUDY    59  56  89 E7        29.87R FOG
LOGANSPORT +   CLOUDY    61  61 100 N6        29.86R FOG
PERU/GRISSOM   CLOUDY    62  62 100 NE6       29.84R FOG
ROCHESTER +    CLOUDY    63  63 100 NE5       29.86R FOG
SOUTH BEND     MOCLDY    57  57 100 NE3       29.87R
WARSAW +       CLOUDY    59  59 100 NE5       29.86R FOG

$$

INZ006>009-017-018-025>027-271200-
NORTHEAST INDIANA

CITY           SKY/WX    TMP DP  RH WIND       PRES   REMARKS
ANGOLA *+      CLOUDY    57  46  67 NE3       29.86S
AUBURN +       CLOUDY    59  57  94 NE7       29.87R FOG
FORT WAYNE     CLOUDY    61  59  93 NE6       29.85R FOG
HUNTINGTON +   CLOUDY    60  59  96 NE3       29.84R FOG
KENDALLVILLE + CLOUDY    58  58 100 E6        29.87R FOG

$$

INZ028-029-035-036-043>045-051>053-271200-
WEST CENTRAL INDIANA

CITY           SKY/WX    TMP DP  RH WIND       PRES   REMARKS
CRAWFORDSVL +  MOCLDY   -34 -34 100 NW5       29.85R FOG     WCI -50
GREENCASTLE +  CLOUDY    68  64  88 CALM      29.86R
LAFAYETTE      FOG       60  60 100 NW8       29.85R VSB 1/4
TERRE HAUTE    CLOUDY    68  64  87 NW6       29.86R

$$

INZ030>032-037>040-046>048-054>057-064-065-271200-
CENTRAL INDIANA

CITY           SKY/WX    TMP DP  RH WIND       PRES   REMARKS
CP ATTERBURY + CLOUDY    70  64  83 W3        29.85S
COLUMBUS       CLOUDY    68  64  88 CALM      29.85
FRANKFORT +    CLOUDY    66  65  95 NW5       29.87R FOG
GREENWOOD *+   MOCLDY    69  65  85 SW5       29.85R
INDIANAPOLIS   CLOUDY    68  66  93 W7        29.83S
-EAGLE CREEK   CLOUDY    68  65  90 W3        29.84R
KOKOMO +       CLOUDY    63  62  97 N6        29.85R FOG
MARION +       CLOUDY    63  63 100 E6        29.84R FOG
MT COMFORT *+  CLOUDY    68  64  88 W8        29.85R
SHELBYVILLE    CLOUDY    71  65  81 SW6       29.84R
ZIONSVILLE +   CLOUDY    65  64  96 W3        29.86R

$$

INZ033-034-041-042-049-050-058-059-271200-
EAST CENTRAL INDIANA

CITY           SKY/WX    TMP DP  RH WIND       PRES   REMARKS
MUNCIE         CLOUDY    68  64  87 W6        29.83R
RICHMOND +     CLOUDY    64  63  94 W5        29.85S

$$

INZ060-061-067>069-081>083-085>088-271200-
SOUTHWEST INDIANA

CITY           SKY/WX    TMP DP  RH WIND       PRES   REMARKS
EVANSVILLE     PTCLDY    69  66  90 SW5       29.87R FOG
WASHINGTON +   CLOUDY    69  67  94 W3        29.85S

$$

INZ062-063-066-070>080-084-089>092-271200-
SOUTH CENTRAL AND SOUTHEAST INDIANA

CITY           SKY/WX    TMP DP  RH WIND       PRES   REMARKS
BEDFORD +      CLOUDY    70  64  83 CALM      29.86R
BLOOMINGTON    CLOUDY    70  65  84 W5        29.86R
MADISON *+     CLOUDY    70  64  83 SW5       29.89R
NORTH VERNON + CLOUDY    68  64  88 SW6       29.87R
SEYMOUR +      CLOUDY    72  66  83 SW5       29.85R

$$




USA.gov is the U.S. government's official web portal to all federal, state and local government web resources and services.